Tracking 29892 objects as of 21-Nov-2024
HD Live streaming from Space Station
objects crossing your sky now

SL-16 DEB

Track SL-16 DEB now!
10-day predictions


NORAD ID: 22576
Int'l Code: 1993-016D
Perigee: 845.5 km
Apogee: 1,143.8 km
Inclination: 71.0 °
Period: 104.9 minutes
Semi major axis: 7365 km
RCS: 0.087 m2 (small)
Launch date: March 26, 1993
Source: Commonwealth of Independent States (former USSR) (CIS)
Launch site: TYURATAM MISSILE AND SPACE COMPLEX (TTMTR)

Note: This is SATELLITE DEBRIS
Your satellite tracking list
Your tracking list is empty




NASA's NSSDC Master Catalog

Two Line Element Set (TLE):
1 22576U 93016D   24324.96636390  .00000317  00000-0  33526-3 0  9991
2 22576  70.9963 318.9038 0202512 293.4730 116.2143 13.73363215585808
Source of the keplerian elements: AFSPC